Location: *
(31.2983°S, 151.4094°E)
Time: 04:51:57
(UTC+00:00)

Cosmos 192 - Pass Details

Date: 25 August 2019
Orbit: 702 x 712 km, 74.0° (Epoch: 16 September)

Event Time Altitude Azimuth Distance (km) Brightness Sun altitude
Rises 18:56:10 0° 197° (SSW) 3,143 7.5 -18.3°
Reaches altitude 10° 18:58:31 10° 198° (SSW) 2,216 6.7 -17.8°
Maximum altitude 19:03:32 84° 285° (WNW) 726 4.3 -16.8°
Drops below altitude 10° 19:08:29 10° 13° (NNE) 2,183 7.1 -15.7°
Sets 19:10:47 0° 13° (NNE) 3,093 7.9 -15.2°
